Time,TemperatureF,DewpointF,PressureIn,WindDirection,WindDirectionDegrees,WindSpeedMPH,WindSpeedGustMPH,Humidity,HourlyPrecipIn,Conditions,Clouds,dailyrainin,SolarRadiationWatts/m^2,SoftwareType,DateUTC
2013-01-22 00:00:00,24.9,13.3,29.90,West,271,6.0,6.0,61,0.00,,,0.00,0,Wunderground v.1.15,2013-01-22 05:00:00,
2013-01-22 00:05:00,24.8,12.9,29.90,NW,323,6.0,6.0,60,0.00,,,0.00,0,Wunderground v.1.15,2013-01-22 05:05:00,
2013-01-22 00:10:00,24.7,13.1,29.90,WNW,286,6.0,11.0,61,0.00,,,0.00,0,Wunderground v.1.15,2013-01-22 05:10:00,
2013-01-22 00:15:00,24.5,12.6,29.90,WNW,292,6.0,11.0,60,0.00,,,0.00,0,Wunderground v.1.15,2013-01-22 05:15:00,
2013-01-22 00:25:00,24.4,12.5,29.90,WNW,294,7.0,7.0,60,0.00,,,0.00,0,Wunderground v.1.15,2013-01-22 05:25:00,
2013-01-22 00:35:00,24.2,11.9,29.91,NW,318,8.0,14.0,59,0.00,,,0.00,0,Wunderground v.1.15,2013-01-22 05:35:00,
2013-01-22 00:45:00,24.0,11.7,29.91,WNW,296,7.0,8.0,59,0.00,,,0.00,0,Wunderground v.1.15,2013-01-22 05:45:00,
2013-01-22 00:55:00,23.8,11.2,29.91,WSW,240,6.0,7.0,58,0.00,,,0.00,0,Wunderground v.1.15,2013-01-22 05:55:00,
2013-01-22 01:00:00,23.6,11.0,29.91,West,281,6.0,7.0,58,0.00,,,0.00,0,Wunderground v.1.15,2013-01-22 06:00:00,
2013-01-22 01:05:00,23.6,11.0,29.91,WNW,284,7.0,7.0,58,0.00,,,0.00,0,Wunderground v.1.15,2013-01-22 06:05:00,
2013-01-22 01:15:00,23.3,9.9,29.91,West,267,6.0,6.0,56,0.00,,,0.00,0,Wunderground v.1.15,2013-01-22 06:15:00,
2013-01-22 01:25:00,23.0,8.8,29.92,West,274,6.0,6.0,54,0.00,,,0.00,0,Wunderground v.1.15,2013-01-22 06:25:00,
2013-01-22 01:35:00,22.8,8.2,29.92,NW,321,7.0,15.0,53,0.00,,,0.00,0,Wunderground v.1.15,2013-01-22 06:35:00,
2013-01-22 01:45:00,22.7,8.1,29.92,West,259,8.0,9.0,53,0.00,,,0.00,0,Wunderground v.1.15,2013-01-22 06:45:00,
2013-01-22 01:50:00,22.6,7.6,29.93,NNW,333,6.0,6.0,52,0.00,,,0.00,0,Wunderground v.1.15,2013-01-22 06:50:00,
2013-01-22 02:00:00,22.3,7.3,29.93,West,280,7.0,8.0,52,0.00,,,0.00,0,Wunderground v.1.15,2013-01-22 07:00:00,
2013-01-22 02:10:00,22.1,7.1,29.93,WNW,293,6.0,10.0,52,0.00,,,0.00,0,Wunderground v.1.15,2013-01-22 07:10:00,
2013-01-22 02:15:00,21.9,6.9,29.93,WNW,283,6.0,10.0,52,0.00,,,0.00,0,Wunderground v.1.15,2013-01-22 07:15:00,
2013-01-22 02:20:00,21.8,6.8,29.93,WNW,285,7.0,7.0,52,0.00,,,0.00,0,Wunderground v.1.15,2013-01-22 07:20:00,
2013-01-22 02:30:00,21.5,6.6,29.93,WNW,292,6.0,15.0,52,0.00,,,0.00,0,Wunderground v.1.15,2013-01-22 07:30:00,
2013-01-22 02:40:00,21.3,6.8,29.94,WNW,294,7.0,7.0,53,0.00,,,0.00,0,Wunderground v.1.15,2013-01-22 07:40:00,
2013-01-22 02:50:00,21.1,6.6,29.94,WNW,294,4.0,14.0,53,0.00,,,0.00,0,Wunderground v.1.15,2013-01-22 07:50:00,
2013-01-22 02:55:00,20.9,6.4,29.94,WNW,285,5.0,14.0,53,0.00,,,0.00,0,Wunderground v.1.15,2013-01-22 07:55:00,
2013-01-22 03:05:00,20.7,5.4,29.95,WNW,288,7.0,7.0,51,0.00,,,0.00,0,Wunderground v.1.15,2013-01-22 08:05:00,
2013-01-22 03:15:00,20.5,4.8,29.96,NW,314,7.0,9.0,50,0.00,,,0.00,0,Wunderground v.1.15,2013-01-22 08:15:00,
2013-01-22 03:20:00,20.3,4.6,29.96,West,263,8.0,9.0,50,0.00,,,0.00,0,Wunderground v.1.15,2013-01-22 08:20:00,
2013-01-22 03:30:00,20.1,4.8,29.97,West,263,6.0,7.0,51,0.00,,,0.00,0,Wunderground v.1.15,2013-01-22 08:30:00,
2013-01-22 03:40:00,19.8,5.0,29.97,West,273,5.0,6.0,52,0.00,,,0.00,0,Wunderground v.1.15,2013-01-22 08:40:00,
2013-01-22 03:50:00,19.6,4.4,29.98,WNW,285,7.0,12.0,51,0.00,,,0.00,0,Wunderground v.1.15,2013-01-22 08:50:00,
2013-01-22 03:55:00,19.5,4.7,29.98,West,267,8.0,8.0,52,0.00,,,0.00,0,Wunderground v.1.15,2013-01-22 08:55:00,
2013-01-22 04:00:00,19.5,4.7,29.98,West,263,7.0,7.0,52,0.00,,,0.00,0,Wunderground v.1.15,2013-01-22 09:00:00,
2013-01-22 04:10:00,19.2,4.8,29.98,NNW,340,6.0,6.0,53,0.00,,,0.00,0,Wunderground v.1.15,2013-01-22 09:10:00,
2013-01-22 04:15:00,19.1,4.8,29.98,West,259,7.0,7.0,53,0.00,,,0.00,0,Wunderground v.1.15,2013-01-22 09:15:00,
2013-01-22 04:25:00,19.0,5.1,29.99,West,277,7.0,8.0,54,0.00,,,0.00,0,Wunderground v.1.15,2013-01-22 09:25:00,
2013-01-22 04:30:00,18.9,5.4,29.99,WSW,240,7.0,7.0,55,0.00,,,0.00,0,Wunderground v.1.15,2013-01-22 09:30:00,
2013-01-22 04:40:00,18.6,5.1,30.00,WNW,300,7.0,11.0,55,0.00,,,0.00,0,Wunderground v.1.15,2013-01-22 09:40:00,
2013-01-22 04:50:00,18.5,5.0,30.00,West,268,6.0,8.0,55,0.00,,,0.00,0,Wunderground v.1.15,2013-01-22 09:50:00,
2013-01-22 04:55:00,18.4,4.9,30.00,WNW,296,6.0,9.0,55,0.00,,,0.00,0,Wunderground v.1.15,2013-01-22 09:55:00,
2013-01-22 05:05:00,18.3,4.8,30.01,West,272,5.0,6.0,55,0.00,,,0.00,0,Wunderground v.1.15,2013-01-22 10:05:00,
2013-01-22 05:15:00,18.2,4.7,30.01,West,267,7.0,7.0,55,0.00,,,0.00,0,Wunderground v.1.15,2013-01-22 10:15:00,
2013-01-22 05:20:00,18.0,4.5,30.01,WSW,257,5.0,5.0,55,0.00,,,0.00,0,Wunderground v.1.15,2013-01-22 10:20:00,
2013-01-22 05:25:00,18.0,4.1,30.02,West,275,5.0,6.0,54,0.00,,,0.00,0,Wunderground v.1.15,2013-01-22 10:25:00,
2013-01-22 05:35:00,17.8,4.3,30.02,NW,317,6.0,6.0,55,0.00,,,0.00,0,Wunderground v.1.15,2013-01-22 10:35:00,
2013-01-22 05:45:00,17.7,4.2,30.02,WNW,284,6.0,7.0,55,0.00,,,0.00,0,Wunderground v.1.15,2013-01-22 10:45:00,
2013-01-22 05:50:00,17.6,4.2,30.02,WSW,240,7.0,7.0,55,0.00,,,0.00,0,Wunderground v.1.15,2013-01-22 10:50:00,
2013-01-22 05:55:00,17.5,4.1,30.03,West,279,6.0,9.0,55,0.00,,,0.00,0,Wunderground v.1.15,2013-01-22 10:55:00,
2013-01-22 06:00:00,17.4,4.0,30.03,NW,304,5.0,10.0,55,0.00,,,0.00,0,Wunderground v.1.15,2013-01-22 11:00:00,
2013-01-22 06:10:00,17.3,3.5,30.03,NW,319,7.0,7.0,54,0.00,,,0.00,0,Wunderground v.1.15,2013-01-22 11:10:00,
2013-01-22 06:15:00,17.3,3.5,30.03,NW,310,7.0,8.0,54,0.00,,,0.00,0,Wunderground v.1.15,2013-01-22 11:15:00,
2013-01-22 06:25:00,17.1,3.3,30.04,SSW,202,6.0,8.0,54,0.00,,,0.00,0,Wunderground v.1.15,2013-01-22 11:25:00,
2013-01-22 06:35:00,16.9,3.5,30.05,SW,227,5.0,7.0,55,0.00,,,0.00,0,Wunderground v.1.15,2013-01-22 11:35:00,
2013-01-22 06:45:00,16.8,3.4,30.05,NW,311,7.0,7.0,55,0.00,,,0.00,0,Wunderground v.1.15,2013-01-22 11:45:00,
2013-01-22 06:55:00,16.6,3.2,30.06,West,270,5.0,6.0,55,0.00,,,0.00,0,Wunderground v.1.15,2013-01-22 11:55:00,
2013-01-22 07:05:00,16.6,3.2,30.06,NW,315,6.0,9.0,55,0.00,,,0.00,0,Wunderground v.1.15,2013-01-22 12:05:00,
2013-01-22 07:15:00,16.4,3.4,30.07,NW,325,5.0,6.0,56,0.00,,,0.00,0,Wunderground v.1.15,2013-01-22 12:15:00,
2013-01-22 07:25:00,16.3,3.3,30.07,West,276,6.0,7.0,56,0.00,,,0.00,0,Wunderground v.1.15,2013-01-22 12:25:00,
2013-01-22 07:35:00,16.2,3.2,30.08,WNW,282,6.0,6.0,56,0.00,,,0.00,7,Wunderground v.1.15,2013-01-22 12:35:00,
2013-01-22 07:40:00,16.2,5.1,30.08,WSW,258,5.0,6.0,61,0.00,,,0.00,9,Wunderground v.1.15,2013-01-22 12:40:00,
2013-01-22 07:50:00,16.2,3.2,30.08,West,266,6.0,6.0,56,0.00,,,0.00,12,Wunderground v.1.15,2013-01-22 12:50:00,
2013-01-22 08:00:00,16.3,3.3,30.09,SW,223,6.0,6.0,56,0.00,,,0.00,14,Wunderground v.1.15,2013-01-22 13:00:00,
2013-01-22 08:05:00,16.3,3.3,30.09,WNW,282,6.0,6.0,56,0.00,,,0.00,16,Wunderground v.1.15,2013-01-22 13:05:00,
2013-01-22 08:15:00,16.4,3.0,30.10,WNW,287,6.0,7.0,55,0.00,,,0.00,19,Wunderground v.1.15,2013-01-22 13:15:00,
2013-01-22 08:25:00,16.6,3.2,30.11,WSW,254,6.0,13.0,55,0.00,,,0.00,23,Wunderground v.1.15,2013-01-22 13:25:00,
2013-01-22 08:35:00,16.8,3.4,30.11,West,279,6.0,6.0,55,0.00,,,0.00,26,Wunderground v.1.15,2013-01-22 13:35:00,
2013-01-22 08:45:00,17.0,3.2,30.11,West,280,8.0,9.0,54,0.00,,,0.00,28,Wunderground v.1.15,2013-01-22 13:45:00,
2013-01-22 08:55:00,17.1,2.9,30.11,WNW,288,8.0,10.0,53,0.00,,,0.00,44,Wunderground v.1.15,2013-01-22 13:55:00,
2013-01-22 09:05:00,17.3,2.7,30.11,WNW,296,9.0,9.0,52,0.00,,,0.00,47,Wunderground v.1.15,2013-01-22 14:05:00,
2013-01-22 09:15:00,17.5,2.4,30.11,West,281,8.0,10.0,51,0.00,,,0.00,74,Wunderground v.1.15,2013-01-22 14:15:00,
2013-01-22 09:25:00,17.7,2.6,30.12,NW,305,9.0,14.0,51,0.00,,,0.00,76,Wunderground v.1.15,2013-01-22 14:25:00,
2013-01-22 09:35:00,18.1,3.0,30.12,WSW,242,8.0,12.0,51,0.00,,,0.00,77,Wunderground v.1.15,2013-01-22 14:35:00,
2013-01-22 09:40:00,18.1,3.4,30.13,NW,320,7.0,8.0,52,0.00,,,0.00,123,Wunderground v.1.15,2013-01-22 14:40:00,
2013-01-22 09:50:00,18.5,2.9,30.13,WSW,246,8.0,8.0,50,0.00,,,0.00,63,Wunderground v.1.15,2013-01-22 14:50:00,
2013-01-22 10:00:00,18.3,2.3,30.14,NW,311,7.0,7.0,49,0.00,,,0.00,39,Wunderground v.1.15,2013-01-22 15:00:00,
2013-01-22 10:10:00,18.1,2.1,30.14,West,275,7.0,10.0,49,0.00,,,0.00,77,Wunderground v.1.15,2013-01-22 15:10:00,
2013-01-22 10:20:00,18.1,2.6,30.14,WNW,283,7.0,8.0,50,0.00,,,0.00,158,Wunderground v.1.15,2013-01-22 15:20:00,
2013-01-22 10:30:00,18.6,2.6,30.14,West,265,7.0,7.0,49,0.00,,,0.00,236,Wunderground v.1.15,2013-01-22 15:30:00,
2013-01-22 10:35:00,18.8,1.9,30.14,NW,316,8.0,8.0,47,0.00,,,0.00,88,Wunderground v.1.15,2013-01-22 15:35:00,
2013-01-22 10:50:00,18.6,1.7,30.14,WNW,292,8.0,8.0,47,0.00,,,0.00,63,Wunderground v.1.15,2013-01-22 15:50:00,
2013-01-22 10:55:00,18.5,1.6,30.14,West,261,8.0,8.0,47,0.00,,,0.00,42,Wunderground v.1.15,2013-01-22 15:55:00,
2013-01-22 11:05:00,18.4,2.0,30.13,SW,229,8.0,8.0,48,0.00,,,0.00,83,Wunderground v.1.15,2013-01-22 16:05:00,
2013-01-22 11:10:00,18.3,1.9,30.13,NW,312,8.0,10.0,48,0.00,,,0.00,221,Wunderground v.1.15,2013-01-22 16:10:00,
2013-01-22 11:20:00,19.3,1.9,30.13,WNW,294,7.0,8.0,46,0.00,,,0.00,260,Wunderground v.1.15,2013-01-22 16:20:00,
2013-01-22 11:25:00,19.7,2.2,30.13,WSW,252,8.0,12.0,46,0.00,,,0.00,283,Wunderground v.1.15,2013-01-22 16:25:00,
2013-01-22 11:35:00,19.4,1.0,30.12,West,280,9.0,12.0,44,0.00,,,0.00,211,Wunderground v.1.15,2013-01-22 16:35:00,
2013-01-22 11:50:00,19.9,1.0,30.12,NW,322,7.0,7.0,43,0.00,,,0.00,165,Wunderground v.1.15,2013-01-22 16:50:00,
2013-01-22 12:00:00,20.1,0.6,30.11,WSW,246,7.0,7.0,42,0.00,,,0.00,218,Wunderground v.1.15,2013-01-22 17:00:00,
2013-01-22 12:10:00,19.9,-0.1,30.11,WNW,282,7.0,10.0,41,0.00,,,0.00,151,Wunderground v.1.15,2013-01-22 17:10:00,
2013-01-22 12:15:00,20.2,0.2,30.11,West,268,7.0,10.0,41,0.00,,,0.00,246,Wunderground v.1.15,2013-01-22 17:15:00,
2013-01-22 12:20:00,20.4,0.4,30.11,NW,322,7.0,7.0,41,0.00,,,0.00,81,Wunderground v.1.15,2013-01-22 17:20:00,
2013-01-22 12:25:00,20.5,0.0,30.11,NW,324,7.0,8.0,40,0.00,,,0.00,76,Wunderground v.1.15,2013-01-22 17:25:00,
2013-01-22 12:35:00,20.1,-0.9,30.10,NNW,327,9.0,12.0,39,0.00,,,0.00,109,Wunderground v.1.15,2013-01-22 17:35:00,
2013-01-22 12:45:00,20.5,0.0,30.11,West,274,7.0,9.0,40,0.00,,,0.00,56,Wunderground v.1.15,2013-01-22 17:45:00,
2013-01-22 12:50:00,20.2,-0.8,30.11,SW,228,7.0,7.0,39,0.00,,,0.00,62,Wunderground v.1.15,2013-01-22 17:50:00,
2013-01-22 13:00:00,20.1,-1.5,30.10,NNW,339,8.0,8.0,38,0.00,,,0.00,58,Wunderground v.1.15,2013-01-22 18:00:00,
2013-01-22 13:05:00,19.8,-1.2,30.10,NW,305,8.0,8.0,39,0.00,,,0.00,111,Wunderground v.1.15,2013-01-22 18:05:00,
2013-01-22 13:15:00,19.8,-2.3,30.10,NNW,333,8.0,8.0,37,0.00,,,0.00,56,Wunderground v.1.15,2013-01-22 18:15:00,
2013-01-22 13:20:00,19.7,-1.3,30.11,WNW,290,9.0,16.0,39,0.00,,,0.00,53,Wunderground v.1.15,2013-01-22 18:20:00,
2013-01-22 13:30:00,20.1,-2.1,30.11,West,278,9.0,10.0,37,0.00,,,0.00,49,Wunderground v.1.15,2013-01-22 18:30:00,
2013-01-22 13:40:00,20.0,-1.0,30.10,WNW,303,8.0,8.0,39,0.00,,,0.00,54,Wunderground v.1.15,2013-01-22 18:40:00,
2013-01-22 13:45:00,19.9,-1.1,30.10,WSW,241,8.0,8.0,39,0.00,,,0.00,60,Wunderground v.1.15,2013-01-22 18:45:00,
2013-01-22 13:55:00,20.2,-0.3,30.10,WSW,241,9.0,9.0,40,0.00,,,0.00,67,Wunderground v.1.15,2013-01-22 18:55:00,
2013-01-22 14:05:00,20.2,-0.8,30.10,West,267,8.0,8.0,39,0.00,,,0.00,90,Wunderground v.1.15,2013-01-22 19:05:00,
2013-01-22 14:10:00,20.1,-0.9,30.11,NW,326,8.0,8.0,39,0.00,,,0.00,88,Wunderground v.1.15,2013-01-22 19:10:00,
2013-01-22 14:20:00,19.6,-1.9,30.11,NNW,333,8.0,8.0,38,0.00,,,0.00,46,Wunderground v.1.15,2013-01-22 19:20:00,
2013-01-22 14:25:00,19.4,-1.6,30.11,WNW,296,7.0,8.0,39,0.00,,,0.00,114,Wunderground v.1.15,2013-01-22 19:25:00,
2013-01-22 14:30:00,19.7,-0.2,30.11,WNW,288,7.0,7.0,41,0.00,,,0.00,176,Wunderground v.1.15,2013-01-22 19:30:00,
2013-01-22 14:40:00,20.2,-0.8,30.11,NNW,336,8.0,9.0,39,0.00,,,0.00,53,Wunderground v.1.15,2013-01-22 19:40:00,
2013-01-22 14:45:00,20.3,-0.8,30.11,WNW,302,8.0,14.0,39,0.00,,,0.00,104,Wunderground v.1.15,2013-01-22 19:45:00,
2013-01-22 14:50:00,20.4,-0.1,30.11,WNW,287,7.0,7.0,40,0.00,,,0.00,202,Wunderground v.1.15,2013-01-22 19:50:00,
2013-01-22 15:00:00,20.6,-0.5,30.12,WNW,290,8.0,8.0,39,0.00,,,0.00,146,Wunderground v.1.15,2013-01-22 20:00:00,
2013-01-22 15:05:00,20.7,0.7,30.12,West,265,8.0,8.0,41,0.00,,,0.00,93,Wunderground v.1.15,2013-01-22 20:05:00,
2013-01-22 15:15:00,19.8,-1.2,30.13,West,267,9.0,13.0,39,0.00,,,0.00,54,Wunderground v.1.15,2013-01-22 20:15:00,
2013-01-22 15:20:00,19.5,-0.9,30.13,WNW,288,7.0,13.0,40,0.00,,,0.00,72,Wunderground v.1.15,2013-01-22 20:20:00,
2013-01-22 15:30:00,19.8,-0.7,30.13,WSW,246,7.0,15.0,40,0.00,,,0.00,91,Wunderground v.1.15,2013-01-22 20:30:00,
2013-01-22 15:40:00,19.6,0.2,30.13,West,281,7.0,13.0,42,0.00,,,0.00,53,Wunderground v.1.15,2013-01-22 20:40:00,
2013-01-22 15:45:00,19.5,0.6,30.14,SW,236,7.0,7.0,43,0.00,,,0.00,102,Wunderground v.1.15,2013-01-22 20:45:00,
2013-01-22 15:55:00,19.1,0.2,30.14,WNW,294,8.0,16.0,43,0.00,,,0.00,37,Wunderground v.1.15,2013-01-22 20:55:00,
2013-01-22 16:00:00,18.9,-1.0,30.14,NW,306,8.0,9.0,41,0.00,,,0.00,60,Wunderground v.1.15,2013-01-22 21:00:00,
2013-01-22 16:10:00,18.9,0.1,30.15,NNW,329,7.0,7.0,43,0.00,,,0.00,42,Wunderground v.1.15,2013-01-22 21:10:00,
2013-01-22 16:15:00,18.8,0.0,30.15,WSW,257,6.0,7.0,43,0.00,,,0.00,18,Wunderground v.1.15,2013-01-22 21:15:00,
2013-01-22 16:20:00,18.3,-1.0,30.15,NNW,329,7.0,8.0,42,0.00,,,0.00,14,Wunderground v.1.15,2013-01-22 21:20:00,
2013-01-22 16:30:00,17.8,-1.0,30.15,NW,319,7.0,10.0,43,0.00,,,0.00,14,Wunderground v.1.15,2013-01-22 21:30:00,
2013-01-22 16:35:00,17.6,-2.1,30.16,WNW,292,7.0,10.0,41,0.00,,,0.00,12,Wunderground v.1.15,2013-01-22 21:35:00,
2013-01-22 16:45:00,17.4,-1.3,30.16,WNW,283,8.0,12.0,43,0.00,,,0.00,9,Wunderground v.1.15,2013-01-22 21:45:00,
2013-01-22 16:55:00,17.3,-1.4,30.17,WNW,284,8.0,9.0,43,0.00,,,0.00,9,Wunderground v.1.15,2013-01-22 21:55:00,
2013-01-22 17:00:00,17.3,-1.9,30.17,West,274,7.0,7.0,42,0.00,,,0.00,5,Wunderground v.1.15,2013-01-22 22:00:00,
2013-01-22 17:05:00,17.2,-2.0,30.17,WNW,296,7.0,7.0,42,0.00,,,0.00,0,Wunderground v.1.15,2013-01-22 22:05:00,
2013-01-22 17:15:00,16.9,-1.8,30.17,WNW,294,7.0,10.0,43,0.00,,,0.00,0,Wunderground v.1.15,2013-01-22 22:15:00,
2013-01-22 17:30:00,16.7,-2.0,30.18,West,261,7.0,7.0,43,0.00,,,0.00,0,Wunderground v.1.15,2013-01-22 22:30:00,
2013-01-22 17:35:00,16.7,-2.0,30.18,NW,308,6.0,7.0,43,0.00,,,0.00,0,Wunderground v.1.15,2013-01-22 22:35:00,
2013-01-22 17:40:00,16.6,-2.0,30.19,West,275,5.0,10.0,43,0.00,,,0.00,0,Wunderground v.1.15,2013-01-22 22:40:00,
2013-01-22 17:50:00,16.5,-1.7,30.19,WNW,297,6.0,6.0,44,0.00,,,0.00,0,Wunderground v.1.15,2013-01-22 22:50:00,
2013-01-22 18:00:00,16.3,-1.4,30.19,West,261,5.0,5.0,45,0.00,,,0.00,0,Wunderground v.1.15,2013-01-22 23:00:00,
2013-01-22 18:10:00,16.3,-1.4,30.20,WNW,288,5.0,20.0,45,0.00,,,0.00,0,Wunderground v.1.15,2013-01-22 23:10:00,
2013-01-22 18:20:00,16.2,-1.5,30.20,West,281,8.0,9.0,45,0.00,,,0.00,0,Wunderground v.1.15,2013-01-22 23:20:00,
2013-01-22 18:25:00,16.2,-1.9,30.20,NW,311,8.0,9.0,44,0.00,,,0.00,0,Wunderground v.1.15,2013-01-22 23:25:00,
2013-01-22 18:35:00,16.1,-1.5,30.20,NW,325,7.0,8.0,45,0.00,,,0.00,0,Wunderground v.1.15,2013-01-22 23:35:00,
2013-01-22 18:45:00,15.9,-0.8,30.21,WSW,253,5.0,9.0,47,0.00,,,0.00,0,Wunderground v.1.15,2013-01-22 23:45:00,
2013-01-22 18:55:00,15.8,-0.9,30.22,West,265,4.0,6.0,47,0.00,,,0.00,0,Wunderground v.1.15,2013-01-22 23:55:00,
2013-01-22 19:05:00,15.8,-0.9,30.22,West,265,6.0,10.0,47,0.00,,,0.00,0,Wunderground v.1.15,2013-01-23 00:05:00,
2013-01-22 19:10:00,15.8,-1.4,30.22,WSW,241,7.0,10.0,46,0.00,,,0.00,0,Wunderground v.1.15,2013-01-23 00:10:00,
2013-01-22 19:20:00,15.7,-1.4,30.23,WNW,295,7.0,12.0,46,0.00,,,0.00,0,Wunderground v.1.15,2013-01-23 00:20:00,
2013-01-22 19:30:00,15.6,-1.5,30.23,WNW,303,6.0,6.0,46,0.00,,,0.00,0,Wunderground v.1.15,2013-01-23 00:30:00,
2013-01-22 19:35:00,15.6,-1.5,30.23,NW,307,5.0,8.0,46,0.00,,,0.00,0,Wunderground v.1.15,2013-01-23 00:35:00,
2013-01-22 19:45:00,15.5,-1.6,30.23,WSW,254,7.0,10.0,46,0.00,,,0.00,0,Wunderground v.1.15,2013-01-23 00:45:00,
2013-01-22 19:50:00,15.4,-1.7,30.23,WNW,282,7.0,7.0,46,0.00,,,0.00,0,Wunderground v.1.15,2013-01-23 00:50:00,
2013-01-22 20:00:00,15.3,-1.4,30.24,WSW,255,6.0,6.0,47,0.00,,,0.00,0,Wunderground v.1.15,2013-01-23 01:00:00,
2013-01-22 20:05:00,15.2,-1.5,30.24,WNW,294,6.0,11.0,47,0.00,,,0.00,0,Wunderground v.1.15,2013-01-23 01:05:00,
2013-01-22 20:15:00,15.0,-0.8,30.24,WSW,257,4.0,6.0,49,0.00,,,0.00,0,Wunderground v.1.15,2013-01-23 01:15:00,
2013-01-22 20:20:00,15.0,-1.2,30.24,NW,306,4.0,4.0,48,0.00,,,0.00,0,Wunderground v.1.15,2013-01-23 01:20:00,
2013-01-22 20:30:00,14.8,-0.5,30.24,WSW,253,4.0,4.0,50,0.00,,,0.00,0,Wunderground v.1.15,2013-01-23 01:30:00,
2013-01-22 20:40:00,14.7,-1.0,30.25,WNW,300,4.0,4.0,49,0.00,,,0.00,0,Wunderground v.1.15,2013-01-23 01:40:00,
2013-01-22 20:50:00,14.6,-1.1,30.25,WNW,291,4.0,6.0,49,0.00,,,0.00,0,Wunderground v.1.15,2013-01-23 01:50:00,
2013-01-22 20:55:00,14.6,-1.1,30.25,WNW,293,5.0,6.0,49,0.00,,,0.00,0,Wunderground v.1.15,2013-01-23 01:55:00,
2013-01-22 21:05:00,14.4,-0.5,30.25,NNW,329,3.0,6.0,51,0.00,,,0.00,0,Wunderground v.1.15,2013-01-23 02:05:00,
2013-01-22 21:15:00,14.3,-1.0,30.25,West,279,5.0,6.0,50,0.00,,,0.00,0,Wunderground v.1.15,2013-01-23 02:15:00,
2013-01-22 21:30:00,14.2,-0.6,30.26,NW,305,6.0,8.0,51,0.00,,,0.00,0,Wunderground v.1.15,2013-01-23 02:30:00,
2013-01-22 21:45:00,14.0,-0.8,30.26,WNW,295,5.0,6.0,51,0.00,,,0.00,0,Wunderground v.1.15,2013-01-23 02:45:00,
2013-01-22 21:50:00,14.0,-0.4,30.27,West,266,6.0,14.0,52,0.00,,,0.00,0,Wunderground v.1.15,2013-01-23 02:50:00,
2013-01-22 22:00:00,13.9,-0.9,30.27,West,272,5.0,5.0,51,0.00,,,0.00,0,Wunderground v.1.15,2013-01-23 03:00:00,
2013-01-22 22:10:00,13.9,-1.8,30.27,West,275,6.0,9.0,49,0.00,,,0.00,0,Wunderground v.1.15,2013-01-23 03:10:00,
2013-01-22 22:15:00,13.8,-1.9,30.27,NW,313,6.0,9.0,49,0.00,,,0.00,0,Wunderground v.1.15,2013-01-23 03:15:00,
2013-01-22 22:25:00,13.7,-2.8,30.27,WNW,287,6.0,11.0,47,0.00,,,0.00,0,Wunderground v.1.15,2013-01-23 03:25:00,
2013-01-22 22:30:00,13.7,-2.4,30.28,NW,309,8.0,8.0,48,0.00,,,0.00,0,Wunderground v.1.15,2013-01-23 03:30:00,
2013-01-22 22:40:00,13.5,-2.6,30.28,WSW,254,4.0,7.0,48,0.00,,,0.00,0,Wunderground v.1.15,2013-01-23 03:40:00,
2013-01-22 22:50:00,13.4,-2.2,30.28,WNW,284,5.0,5.0,49,0.00,,,0.00,0,Wunderground v.1.15,2013-01-23 03:50:00,
2013-01-22 23:00:00,13.2,-2.0,30.28,WNW,289,5.0,6.0,50,0.00,,,0.00,0,Wunderground v.1.15,2013-01-23 04:00:00,
2013-01-22 23:05:00,13.1,-0.5,30.28,WSW,257,4.0,6.0,54,0.00,,,0.00,0,Wunderground v.1.15,2013-01-23 04:05:00,
2013-01-22 23:15:00,13.0,-2.6,30.27,NNW,329,5.0,8.0,49,0.00,,,0.00,0,Wunderground v.1.15,2013-01-23 04:15:00,
2013-01-22 23:25:00,13.0,-2.6,30.27,West,280,5.0,6.0,49,0.00,,,0.00,0,Wunderground v.1.15,2013-01-23 04:25:00,
2013-01-22 23:35:00,12.8,-2.4,30.27,WNW,295,4.0,6.0,50,0.00,,,0.00,0,Wunderground v.1.15,2013-01-23 04:35:00,
2013-01-22 23:40:00,12.8,-2.4,30.27,WSW,251,5.0,5.0,50,0.00,,,0.00,0,Wunderground v.1.15,2013-01-23 04:40:00,
2013-01-22 23:50:00,12.7,-2.5,30.27,NW,312,4.0,4.0,50,0.00,,,0.00,0,Wunderground v.1.15,2013-01-23 04:50:00,